Time,TemperatureF,DewpointF,PressureIn,WindDirection,WindDirectionDegrees,WindSpeedMPH,WindSpeedGustMPH,Humidity,HourlyPrecipIn,Conditions,Clouds,dailyrainin,SoftwareType,DateUTC
2013-05-18 00:01:00,73.3,70.2,29.96,SSE,149,1.0,6.0,90,0.00,,,0.00,Wunderground v.1.15,2013-05-18 05:01:00,
2013-05-18 00:06:00,73.3,70.5,29.96,SSW,195,2.0,2.0,91,0.00,,,0.00,Wunderground v.1.15,2013-05-18 05:06:00,
2013-05-18 00:11:00,73.3,70.5,29.96,SSW,201,2.0,3.0,91,0.00,,,0.00,Wunderground v.1.15,2013-05-18 05:11:00,
2013-05-18 00:17:00,73.3,70.5,29.97,SW,228,2.0,4.0,91,0.00,,,0.00,Wunderground v.1.15,2013-05-18 05:17:00,
2013-05-18 00:22:00,73.3,70.5,29.97,WSW,245,2.0,4.0,91,0.00,,,0.00,Wunderground v.1.15,2013-05-18 05:22:00,
2013-05-18 00:28:00,73.3,70.5,29.96,SSE,160,3.0,7.0,91,0.00,,,0.00,Wunderground v.1.15,2013-05-18 05:28:00,
2013-05-18 00:34:00,73.3,70.8,29.96,SE,134,2.0,7.0,92,0.00,,,0.00,Wunderground v.1.15,2013-05-18 05:34:00,
2013-05-18 00:39:00,73.3,70.8,29.96,SW,226,2.0,3.0,92,0.00,,,0.00,Wunderground v.1.15,2013-05-18 05:39:00,
2013-05-18 00:44:00,73.3,70.8,29.96,WSW,243,2.0,3.0,92,0.00,,,0.00,Wunderground v.1.15,2013-05-18 05:44:00,
2013-05-18 00:50:00,73.3,70.8,29.95,West,262,3.0,3.0,92,0.00,,,0.00,Wunderground v.1.15,2013-05-18 05:50:00,
2013-05-18 00:55:00,73.3,70.8,29.95,WSW,238,3.0,5.0,92,0.00,,,0.00,Wunderground v.1.15,2013-05-18 05:55:00,
2013-05-18 01:00:00,73.2,70.7,29.95,SSE,166,2.0,4.0,92,0.00,,,0.00,Wunderground v.1.15,2013-05-18 06:00:00,
2013-05-18 01:05:00,73.2,70.7,29.95,SW,215,2.0,2.0,92,0.00,,,0.00,Wunderground v.1.15,2013-05-18 06:05:00,
2013-05-18 01:11:00,73.2,71.1,29.95,SE,146,2.0,4.0,93,0.00,,,0.00,Wunderground v.1.15,2013-05-18 06:11:00,
2013-05-18 01:16:00,73.2,71.1,29.96,WSW,249,2.0,4.0,93,0.00,,,0.00,Wunderground v.1.15,2013-05-18 06:16:00,
2013-05-18 01:21:00,73.3,71.2,29.96,SW,222,2.0,4.0,93,0.00,,,0.00,Wunderground v.1.15,2013-05-18 06:21:00,
2013-05-18 01:26:00,73.4,71.3,29.96,South,172,2.0,4.0,93,0.00,,,0.00,Wunderground v.1.15,2013-05-18 06:26:00,
2013-05-18 01:32:00,73.4,70.9,29.95,SSW,207,2.0,4.0,92,0.00,,,0.00,Wunderground v.1.15,2013-05-18 06:32:00,
2013-05-18 01:37:00,73.5,71.0,29.95,SE,146,2.0,4.0,92,0.00,,,0.00,Wunderground v.1.15,2013-05-18 06:37:00,
2013-05-18 01:43:00,73.5,71.0,29.95,South,190,2.0,4.0,92,0.00,,,0.00,Wunderground v.1.15,2013-05-18 06:43:00,
2013-05-18 01:49:00,73.6,71.1,29.95,SSE,148,1.0,4.0,92,0.00,,,0.00,Wunderground v.1.15,2013-05-18 06:49:00,
2013-05-18 01:54:00,73.7,71.2,29.95,SW,235,1.0,4.0,92,0.00,,,0.00,Wunderground v.1.15,2013-05-18 06:54:00,
2013-05-18 01:59:00,73.8,71.3,29.94,SSE,164,2.0,4.0,92,0.00,,,0.00,Wunderground v.1.15,2013-05-18 06:59:00,
2013-05-18 02:04:00,73.9,71.1,29.94,SSW,194,2.0,4.0,91,0.00,,,0.00,Wunderground v.1.15,2013-05-18 07:04:00,
2013-05-18 02:10:00,74.0,71.2,29.94,SSE,151,2.0,4.0,91,0.00,,,0.00,Wunderground v.1.15,2013-05-18 07:10:00,
2013-05-18 02:15:00,74.0,71.2,29.94,SE,146,1.0,4.0,91,0.00,,,0.00,Wunderground v.1.15,2013-05-18 07:15:00,
2013-05-18 02:20:00,74.1,71.3,29.94,SW,235,2.0,7.0,91,0.00,,,0.00,Wunderground v.1.15,2013-05-18 07:20:00,
2013-05-18 02:26:00,74.3,71.2,29.94,SSE,162,3.0,3.0,90,0.00,,,0.00,Wunderground v.1.15,2013-05-18 07:26:00,
2013-05-18 02:31:00,74.3,71.2,29.94,WSW,250,2.0,4.0,90,0.00,,,0.00,Wunderground v.1.15,2013-05-18 07:31:00,
2013-05-18 02:36:00,74.4,71.3,29.94,WSW,249,2.0,4.0,90,0.00,,,0.00,Wunderground v.1.15,2013-05-18 07:36:00,
2013-05-18 02:41:00,74.4,71.3,29.93,South,188,2.0,4.0,90,0.00,,,0.00,Wunderground v.1.15,2013-05-18 07:41:00,
2013-05-18 02:46:00,74.4,71.3,29.93,WSW,238,2.0,4.0,90,0.00,,,0.00,Wunderground v.1.15,2013-05-18 07:46:00,
2013-05-18 02:52:00,74.4,71.3,29.93,SW,224,2.0,4.0,90,0.00,,,0.00,Wunderground v.1.15,2013-05-18 07:52:00,
2013-05-18 02:57:00,74.4,71.3,29.93,WSW,248,2.0,4.0,90,0.00,,,0.00,Wunderground v.1.15,2013-05-18 07:57:00,
2013-05-18 03:03:00,74.5,71.0,29.93,SW,231,3.0,4.0,89,0.00,,,0.00,Wunderground v.1.15,2013-05-18 08:03:00,
2013-05-18 03:09:00,74.6,71.1,29.93,SW,219,2.0,4.0,89,0.00,,,0.00,Wunderground v.1.15,2013-05-18 08:09:00,
2013-05-18 03:14:00,74.6,71.1,29.93,WSW,239,2.0,6.0,89,0.00,,,0.00,Wunderground v.1.15,2013-05-18 08:14:00,
2013-05-18 03:19:00,74.6,71.1,29.93,SW,218,2.0,4.0,89,0.00,,,0.00,Wunderground v.1.15,2013-05-18 08:19:00,
2013-05-18 03:25:00,74.6,71.1,29.93,SW,232,2.0,4.0,89,0.00,,,0.00,Wunderground v.1.15,2013-05-18 08:25:00,
2013-05-18 03:30:00,74.6,71.1,29.93,WSW,257,2.0,4.0,89,0.00,,,0.00,Wunderground v.1.15,2013-05-18 08:30:00,
2013-05-18 03:35:00,74.7,70.9,29.94,SE,127,3.0,6.0,88,0.00,,,0.00,Wunderground v.1.15,2013-05-18 08:35:00,
2013-05-18 03:40:00,74.8,71.0,29.94,SSW,195,3.0,6.0,88,0.00,,,0.00,Wunderground v.1.15,2013-05-18 08:40:00,
2013-05-18 03:46:00,74.8,71.0,29.94,SSE,150,3.0,3.0,88,0.00,,,0.00,Wunderground v.1.15,2013-05-18 08:46:00,
2013-05-18 03:51:00,74.9,71.1,29.94,SE,136,3.0,4.0,88,0.00,,,0.00,Wunderground v.1.15,2013-05-18 08:51:00,
2013-05-18 03:56:00,74.9,71.1,29.94,SSE,150,3.0,3.0,88,0.00,,,0.00,Wunderground v.1.15,2013-05-18 08:56:00,
2013-05-18 04:01:00,74.9,71.1,29.94,NNE,27,3.0,5.0,88,0.00,,,0.00,Wunderground v.1.15,2013-05-18 09:01:00,
2013-05-18 04:07:00,74.9,71.1,29.94,WSW,238,2.0,4.0,88,0.00,,,0.00,Wunderground v.1.15,2013-05-18 09:07:00,
2013-05-18 04:12:00,74.9,71.1,29.94,South,187,2.0,4.0,88,0.00,,,0.00,Wunderground v.1.15,2013-05-18 09:12:00,
2013-05-18 04:17:00,74.9,71.1,29.94,SSW,201,2.0,4.0,88,0.00,,,0.00,Wunderground v.1.15,2013-05-18 09:17:00,
2013-05-18 04:22:00,74.9,71.1,29.94,South,188,2.0,4.0,88,0.00,,,0.00,Wunderground v.1.15,2013-05-18 09:22:00,
2013-05-18 04:27:00,74.9,71.1,29.94,SW,224,2.0,4.0,88,0.00,,,0.00,Wunderground v.1.15,2013-05-18 09:27:00,
2013-05-18 04:33:00,74.9,71.1,29.94,SSE,165,2.0,4.0,88,0.00,,,0.00,Wunderground v.1.15,2013-05-18 09:33:00,
2013-05-18 04:38:00,74.9,71.1,29.94,SSE,152,3.0,4.0,88,0.00,,,0.00,Wunderground v.1.15,2013-05-18 09:38:00,
2013-05-18 04:44:00,74.9,71.1,29.94,SW,225,2.0,4.0,88,0.00,,,0.00,Wunderground v.1.15,2013-05-18 09:44:00,
2013-05-18 04:49:00,74.9,71.1,29.94,WSW,256,2.0,4.0,88,0.00,,,0.00,Wunderground v.1.15,2013-05-18 09:49:00,
2013-05-18 04:54:00,74.9,71.1,29.95,South,169,2.0,4.0,88,0.00,,,0.00,Wunderground v.1.15,2013-05-18 09:54:00,
2013-05-18 04:59:00,74.9,71.1,29.94,SE,146,2.0,4.0,88,0.00,,,0.00,Wunderground v.1.15,2013-05-18 09:59:00,
2013-05-18 05:05:00,74.9,71.1,29.95,SSW,205,1.0,4.0,88,0.00,,,0.00,Wunderground v.1.15,2013-05-18 10:05:00,
2013-05-18 05:10:00,74.9,71.1,29.95,WSW,238,1.0,4.0,88,0.00,,,0.00,Wunderground v.1.15,2013-05-18 10:10:00,
2013-05-18 05:15:00,74.8,71.0,29.95,SW,219,1.0,4.0,88,0.00,,,0.00,Wunderground v.1.15,2013-05-18 10:15:00,
2013-05-18 05:20:00,74.8,71.0,29.95,SSE,162,1.0,4.0,88,0.00,,,0.00,Wunderground v.1.15,2013-05-18 10:20:00,
2013-05-18 05:26:00,74.8,71.3,29.95,West,260,1.0,4.0,89,0.00,,,0.00,Wunderground v.1.15,2013-05-18 10:26:00,
2013-05-18 05:31:00,74.8,71.3,29.95,SW,218,1.0,4.0,89,0.00,,,0.00,Wunderground v.1.15,2013-05-18 10:31:00,
2013-05-18 05:37:00,74.8,71.3,29.95,SW,222,2.0,5.0,89,0.00,,,0.00,Wunderground v.1.15,2013-05-18 10:37:00,
2013-05-18 05:42:00,74.8,71.3,29.95,SSW,193,2.0,5.0,89,0.00,,,0.00,Wunderground v.1.15,2013-05-18 10:42:00,
2013-05-18 05:48:00,74.8,71.3,29.95,SW,215,2.0,4.0,89,0.00,,,0.00,Wunderground v.1.15,2013-05-18 10:48:00,
2013-05-18 05:53:00,74.8,71.3,29.95,WSW,246,1.0,4.0,89,0.00,,,0.00,Wunderground v.1.15,2013-05-18 10:53:00,
2013-05-18 05:59:00,74.8,71.3,29.95,SW,230,1.0,4.0,89,0.00,,,0.00,Wunderground v.1.15,2013-05-18 10:59:00,
2013-05-18 06:05:00,74.7,71.2,29.96,SW,224,1.0,4.0,89,0.00,,,0.00,Wunderground v.1.15,2013-05-18 11:05:00,
2013-05-18 06:10:00,74.7,71.2,29.96,SSW,213,1.0,4.0,89,0.00,,,0.00,Wunderground v.1.15,2013-05-18 11:10:00,
2013-05-18 06:15:00,74.6,71.1,29.97,WSW,238,1.0,4.0,89,0.00,,,0.00,Wunderground v.1.15,2013-05-18 11:15:00,
2013-05-18 06:21:00,74.6,71.1,29.97,SW,228,1.0,4.0,89,0.00,,,0.00,Wunderground v.1.15,2013-05-18 11:21:00,
2013-05-18 06:26:00,74.6,71.1,29.97,WSW,240,1.0,1.0,89,0.00,,,0.00,Wunderground v.1.15,2013-05-18 11:26:00,
2013-05-18 06:31:00,74.6,71.1,29.97,SSW,205,1.0,4.0,89,0.00,,,0.00,Wunderground v.1.15,2013-05-18 11:31:00,
2013-05-18 06:36:00,74.7,71.2,29.97,SSW,204,1.0,4.0,89,0.00,,,0.00,Wunderground v.1.15,2013-05-18 11:36:00,
2013-05-18 06:42:00,74.7,71.2,29.98,SW,219,1.0,4.0,89,0.00,,,0.00,Wunderground v.1.15,2013-05-18 11:42:00,
2013-05-18 06:47:00,74.8,71.0,29.98,SW,235,1.0,4.0,88,0.00,,,0.00,Wunderground v.1.15,2013-05-18 11:47:00,
2013-05-18 06:52:00,74.8,71.0,29.98,SW,215,0.0,4.0,88,0.00,,,0.00,Wunderground v.1.15,2013-05-18 11:52:00,
2013-05-18 06:57:00,74.8,71.0,29.99,WSW,249,1.0,4.0,88,0.00,,,0.00,Wunderground v.1.15,2013-05-18 11:57:00,
2013-05-18 07:03:00,74.9,71.1,29.99,WSW,238,1.0,4.0,88,0.00,,,0.00,Wunderground v.1.15,2013-05-18 12:03:00,
2013-05-18 07:08:00,74.9,71.1,29.99,SW,228,0.0,4.0,88,0.00,,,0.00,Wunderground v.1.15,2013-05-18 12:08:00,
2013-05-18 07:13:00,75.0,71.2,29.99,SW,234,0.0,4.0,88,0.00,,,0.00,Wunderground v.1.15,2013-05-18 12:13:00,
2013-05-18 07:18:00,75.1,71.3,29.99,SW,228,1.0,4.0,88,0.00,,,0.00,Wunderground v.1.15,2013-05-18 12:18:00,
2013-05-18 07:24:00,75.2,71.4,30.00,SW,217,1.0,4.0,88,0.00,,,0.00,Wunderground v.1.15,2013-05-18 12:24:00,
2013-05-18 07:29:00,75.3,71.5,30.00,SSE,149,1.0,4.0,88,0.00,,,0.00,Wunderground v.1.15,2013-05-18 12:29:00,
2013-05-18 07:34:00,75.4,71.6,29.99,SW,228,1.0,4.0,88,0.00,,,0.00,Wunderground v.1.15,2013-05-18 12:34:00,
2013-05-18 07:40:00,75.5,71.7,29.99,SE,132,1.0,4.0,88,0.00,,,0.00,Wunderground v.1.15,2013-05-18 12:40:00,
2013-05-18 07:45:00,75.6,71.8,30.00,SSW,198,1.0,4.0,88,0.00,,,0.00,Wunderground v.1.15,2013-05-18 12:45:00,
2013-05-18 07:50:00,75.7,71.6,30.00,SE,126,1.0,4.0,87,0.00,,,0.00,Wunderground v.1.15,2013-05-18 12:50:00,
2013-05-18 07:55:00,75.8,71.7,30.00,SSW,197,1.0,4.0,87,0.00,,,0.00,Wunderground v.1.15,2013-05-18 12:55:00,
2013-05-18 08:01:00,75.9,71.8,30.00,SSW,211,2.0,4.0,87,0.00,,,0.00,Wunderground v.1.15,2013-05-18 13:01:00,
2013-05-18 08:06:00,76.0,71.5,30.00,SW,224,2.0,2.0,86,0.00,,,0.00,Wunderground v.1.15,2013-05-18 13:06:00,
2013-05-18 08:11:00,76.1,71.6,30.00,SSE,151,2.0,4.0,86,0.00,,,0.00,Wunderground v.1.15,2013-05-18 13:11:00,
2013-05-18 08:16:00,76.4,71.9,30.00,SSE,152,2.0,4.0,86,0.00,,,0.00,Wunderground v.1.15,2013-05-18 13:16:00,
2013-05-18 08:22:00,76.7,72.2,30.00,SSW,204,2.0,4.0,86,0.00,,,0.00,Wunderground v.1.15,2013-05-18 13:22:00,
2013-05-18 08:27:00,77.0,72.1,30.00,WSW,255,2.0,5.0,85,0.00,,,0.00,Wunderground v.1.15,2013-05-18 13:27:00,
2013-05-18 08:32:00,77.2,72.0,30.01,SW,217,2.0,5.0,84,0.00,,,0.00,Wunderground v.1.15,2013-05-18 13:32:00,
2013-05-18 08:38:00,77.5,72.3,30.01,SSW,205,1.0,4.0,84,0.00,,,0.00,Wunderground v.1.15,2013-05-18 13:38:00,
2013-05-18 08:44:00,77.5,71.9,30.01,WSW,246,2.0,4.0,83,0.00,,,0.00,Wunderground v.1.15,2013-05-18 13:44:00,
2013-05-18 08:50:00,77.5,71.9,30.01,South,169,3.0,6.0,83,0.00,,,0.00,Wunderground v.1.15,2013-05-18 13:50:00,
2013-05-18 08:56:00,78.4,72.1,30.01,SSE,165,4.0,5.0,81,0.00,,,0.00,Wunderground v.1.15,2013-05-18 13:56:00,
2013-05-18 09:02:00,78.8,71.7,30.01,South,183,4.0,10.0,79,0.00,,,0.00,Wunderground v.1.15,2013-05-18 14:02:00,
2013-05-18 09:07:00,78.7,72.4,30.01,SSE,162,3.0,4.0,81,0.00,,,0.00,Wunderground v.1.15,2013-05-18 14:07:00,
2013-05-18 09:13:00,78.4,72.1,30.02,SW,222,2.0,4.0,81,0.00,,,0.00,Wunderground v.1.15,2013-05-18 14:13:00,
2013-05-18 09:19:00,78.2,72.6,30.01,SSW,208,3.0,4.0,83,0.00,,,0.00,Wunderground v.1.15,2013-05-18 14:19:00,
2013-05-18 09:24:00,78.6,72.6,30.01,SSE,153,4.0,5.0,82,0.00,,,0.00,Wunderground v.1.15,2013-05-18 14:24:00,
2013-05-18 09:30:00,79.3,72.2,30.01,SSW,211,4.0,6.0,79,0.00,,,0.00,Wunderground v.1.15,2013-05-18 14:30:00,
2013-05-18 09:35:00,79.8,71.9,30.01,SSE,168,4.0,7.0,77,0.00,,,0.00,Wunderground v.1.15,2013-05-18 14:35:00,
2013-05-18 09:40:00,80.4,72.9,30.01,SE,139,4.0,6.0,78,0.00,,,0.00,Wunderground v.1.15,2013-05-18 14:40:00,
2013-05-18 09:45:00,81.0,72.7,30.02,SSE,150,4.0,4.0,76,0.00,,,0.00,Wunderground v.1.15,2013-05-18 14:45:00,
2013-05-18 09:51:00,80.8,72.5,30.02,South,176,4.0,4.0,76,0.00,,,0.00,Wunderground v.1.15,2013-05-18 14:51:00,
2013-05-18 09:56:00,80.4,72.5,30.01,SE,139,3.0,3.0,77,0.00,,,0.00,Wunderground v.1.15,2013-05-18 14:56:00,
2013-05-18 10:01:00,80.7,73.2,30.01,SW,217,2.0,4.0,78,0.00,,,0.00,Wunderground v.1.15,2013-05-18 15:01:00,
2013-05-18 10:06:00,80.8,72.5,30.01,SW,226,2.0,4.0,76,0.00,,,0.00,Wunderground v.1.15,2013-05-18 15:06:00,
2013-05-18 10:12:00,80.3,72.4,30.01,ESE,122,3.0,6.0,77,0.00,,,0.00,Wunderground v.1.15,2013-05-18 15:12:00,
2013-05-18 10:17:00,80.6,72.7,30.01,SSE,160,4.0,5.0,77,0.00,,,0.00,Wunderground v.1.15,2013-05-18 15:17:00,
2013-05-18 10:22:00,80.6,72.3,30.02,SSW,200,4.0,5.0,76,0.00,,,0.00,Wunderground v.1.15,2013-05-18 15:22:00,
2013-05-18 10:27:00,81.0,72.3,30.02,SSW,210,4.0,7.0,75,0.00,,,0.00,Wunderground v.1.15,2013-05-18 15:27:00,
2013-05-18 10:33:00,81.3,72.2,30.01,South,170,4.0,7.0,74,0.00,,,0.00,Wunderground v.1.15,2013-05-18 15:33:00,
2013-05-18 10:38:00,81.7,72.6,30.02,SSE,156,4.0,4.0,74,0.00,,,0.00,Wunderground v.1.15,2013-05-18 15:38:00,
2013-05-18 10:43:00,81.9,72.4,30.01,South,190,3.0,4.0,73,0.00,,,0.00,Wunderground v.1.15,2013-05-18 15:43:00,
2013-05-18 10:49:00,82.8,72.8,30.02,NW,306,3.0,4.0,72,0.00,,,0.00,Wunderground v.1.15,2013-05-18 15:49:00,
2013-05-18 10:55:00,82.8,72.4,30.02,SSW,210,3.0,9.0,71,0.00,,,0.00,Wunderground v.1.15,2013-05-18 15:55:00,
2013-05-18 11:01:00,82.9,72.5,30.01,ESE,107,3.0,6.0,71,0.00,,,0.00,Wunderground v.1.15,2013-05-18 16:01:00,
2013-05-18 11:06:00,82.7,72.7,30.01,NW,314,3.0,3.0,72,0.00,,,0.00,Wunderground v.1.15,2013-05-18 16:06:00,
2013-05-18 11:11:00,82.6,72.7,30.01,WSW,238,4.0,6.0,72,0.00,,,0.00,Wunderground v.1.15,2013-05-18 16:11:00,
2013-05-18 11:16:00,83.6,73.6,30.01,West,274,2.0,4.0,72,0.00,,,0.00,Wunderground v.1.15,2013-05-18 16:16:00,
2013-05-18 11:21:00,84.3,73.4,30.01,South,179,2.0,4.0,70,0.00,,,0.00,Wunderground v.1.15,2013-05-18 16:21:00,
2013-05-18 11:27:00,84.5,72.8,30.01,ESE,106,3.0,4.0,68,0.00,,,0.00,Wunderground v.1.15,2013-05-18 16:27:00,
2013-05-18 11:32:00,84.3,73.0,30.01,SW,226,4.0,7.0,69,0.00,,,0.00,Wunderground v.1.15,2013-05-18 16:32:00,
2013-05-18 11:38:00,84.8,73.1,30.01,SSE,157,4.0,4.0,68,0.00,,,0.00,Wunderground v.1.15,2013-05-18 16:38:00,
2013-05-18 11:44:00,84.7,73.0,30.00,South,177,3.0,5.0,68,0.00,,,0.00,Wunderground v.1.15,2013-05-18 16:44:00,
2013-05-18 11:49:00,84.7,72.5,30.00,South,173,3.0,8.0,67,0.00,,,0.00,Wunderground v.1.15,2013-05-18 16:49:00,
2013-05-18 11:54:00,84.3,73.9,30.00,ESE,111,5.0,8.0,71,0.00,,,0.00,Wunderground v.1.15,2013-05-18 16:54:00,
2013-05-18 12:00:00,84.7,73.4,30.00,South,181,5.0,6.0,69,0.00,,,0.00,Wunderground v.1.15,2013-05-18 17:00:00,
2013-05-18 12:05:00,84.6,72.9,30.00,ESE,111,4.0,6.0,68,0.00,,,0.00,Wunderground v.1.15,2013-05-18 17:05:00,
2013-05-18 12:10:00,84.4,73.1,30.00,SSW,200,4.0,6.0,69,0.00,,,0.00,Wunderground v.1.15,2013-05-18 17:10:00,
2013-05-18 12:16:00,85.0,73.7,29.99,SSW,201,3.0,4.0,69,0.00,,,0.00,Wunderground v.1.15,2013-05-18 17:16:00,
2013-05-18 12:21:00,85.8,74.4,29.99,SSW,208,3.0,7.0,69,0.00,,,0.00,Wunderground v.1.15,2013-05-18 17:21:00,
2013-05-18 12:26:00,85.8,73.6,29.99,SE,139,4.0,8.0,67,0.00,,,0.00,Wunderground v.1.15,2013-05-18 17:26:00,
2013-05-18 12:31:00,85.5,73.3,29.99,SSE,159,5.0,8.0,67,0.00,,,0.00,Wunderground v.1.15,2013-05-18 17:31:00,
2013-05-18 12:37:00,85.9,74.1,29.99,SE,137,4.0,5.0,68,0.00,,,0.00,Wunderground v.1.15,2013-05-18 17:37:00,
2013-05-18 12:42:00,85.5,73.7,29.99,South,170,4.0,7.0,68,0.00,,,0.00,Wunderground v.1.15,2013-05-18 17:42:00,
2013-05-18 12:47:00,85.6,74.3,29.99,SSE,160,5.0,5.0,69,0.00,,,0.00,Wunderground v.1.15,2013-05-18 17:47:00,
2013-05-18 12:52:00,86.1,74.3,29.98,SSW,198,4.0,5.0,68,0.00,,,0.00,Wunderground v.1.15,2013-05-18 17:52:00,
2013-05-18 12:57:00,87.0,74.7,29.98,SSW,211,4.0,9.0,67,0.00,,,0.00,Wunderground v.1.15,2013-05-18 17:57:00,
2013-05-18 13:03:00,86.8,74.5,29.98,SE,140,4.0,9.0,67,0.00,,,0.00,Wunderground v.1.15,2013-05-18 18:03:00,
2013-05-18 13:08:00,86.6,74.3,29.98,SE,143,4.0,9.0,67,0.00,,,0.00,Wunderground v.1.15,2013-05-18 18:08:00,
2013-05-18 13:14:00,86.3,74.5,29.98,SE,139,5.0,9.0,68,0.00,,,0.00,Wunderground v.1.15,2013-05-18 18:14:00,
2013-05-18 13:19:00,86.7,74.4,29.98,WSW,250,5.0,9.0,67,0.00,,,0.00,Wunderground v.1.15,2013-05-18 18:19:00,
2013-05-18 13:24:00,86.8,73.6,29.98,WNW,287,5.0,9.0,65,0.00,,,0.00,Wunderground v.1.15,2013-05-18 18:24:00,
2013-05-18 13:29:00,87.3,74.1,29.98,WSW,245,4.0,9.0,65,0.00,,,0.00,Wunderground v.1.15,2013-05-18 18:29:00,
2013-05-18 13:35:00,87.7,74.0,29.98,SW,232,3.0,9.0,64,0.00,,,0.00,Wunderground v.1.15,2013-05-18 18:35:00,
2013-05-18 13:40:00,88.0,74.3,29.98,South,181,3.0,9.0,64,0.00,,,0.00,Wunderground v.1.15,2013-05-18 18:40:00,
2013-05-18 13:46:00,87.6,74.4,29.98,SSW,208,5.0,5.0,65,0.00,,,0.00,Wunderground v.1.15,2013-05-18 18:46:00,
2013-05-18 13:51:00,87.5,74.3,29.98,WSW,246,4.0,9.0,65,0.00,,,0.00,Wunderground v.1.15,2013-05-18 18:51:00,
2013-05-18 13:57:00,87.5,74.7,29.98,SSE,153,4.0,9.0,66,0.00,,,0.00,Wunderground v.1.15,2013-05-18 18:57:00,
2013-05-18 14:02:00,87.9,75.1,29.97,SW,231,3.0,9.0,66,0.00,,,0.00,Wunderground v.1.15,2013-05-18 19:02:00,
2013-05-18 14:08:00,87.9,74.2,29.97,SSE,151,3.0,9.0,64,0.00,,,0.00,Wunderground v.1.15,2013-05-18 19:08:00,
2013-05-18 14:14:00,87.8,74.1,29.97,SW,219,4.0,9.0,64,0.00,,,0.00,Wunderground v.1.15,2013-05-18 19:14:00,
2013-05-18 14:19:00,87.8,74.1,29.97,South,174,4.0,9.0,64,0.00,,,0.00,Wunderground v.1.15,2013-05-18 19:19:00,
2013-05-18 14:24:00,87.8,74.1,29.97,SW,232,4.0,10.0,64,0.00,,,0.00,Wunderground v.1.15,2013-05-18 19:24:00,
2013-05-18 14:30:00,87.9,74.7,29.96,South,171,4.0,9.0,65,0.00,,,0.00,Wunderground v.1.15,2013-05-18 19:30:00,
2013-05-18 14:35:00,88.4,74.2,29.96,West,269,4.0,9.0,63,0.00,,,0.00,Wunderground v.1.15,2013-05-18 19:35:00,
2013-05-18 14:40:00,88.6,74.9,29.96,WSW,253,3.0,9.0,64,0.00,,,0.00,Wunderground v.1.15,2013-05-18 19:40:00,
2013-05-18 14:45:00,88.3,74.6,29.96,SSW,198,3.0,9.0,64,0.00,,,0.00,Wunderground v.1.15,2013-05-18 19:45:00,
2013-05-18 14:51:00,88.8,74.6,29.96,SW,224,3.0,9.0,63,0.00,,,0.00,Wunderground v.1.15,2013-05-18 19:51:00,
2013-05-18 14:56:00,89.0,74.8,29.96,SE,144,3.0,9.0,63,0.00,,,0.00,Wunderground v.1.15,2013-05-18 19:56:00,
2013-05-18 15:01:00,89.0,74.3,29.95,SSW,202,4.0,9.0,62,0.00,,,0.00,Wunderground v.1.15,2013-05-18 20:01:00,
2013-05-18 15:07:00,88.5,74.8,29.95,SSE,156,5.0,9.0,64,0.00,,,0.00,Wunderground v.1.15,2013-05-18 20:07:00,
2013-05-18 15:12:00,88.7,74.0,29.95,SSE,162,5.0,9.0,62,0.00,,,0.00,Wunderground v.1.15,2013-05-18 20:12:00,
2013-05-18 15:18:00,88.7,74.0,29.95,SE,146,3.0,9.0,62,0.00,,,0.00,Wunderground v.1.15,2013-05-18 20:18:00,
2013-05-18 15:24:00,88.4,74.7,29.95,South,173,3.0,9.0,64,0.00,,,0.00,Wunderground v.1.15,2013-05-18 20:24:00,
2013-05-18 15:29:00,88.3,74.6,29.95,South,186,5.0,9.0,64,0.00,,,0.00,Wunderground v.1.15,2013-05-18 20:29:00,
2013-05-18 15:34:00,88.2,74.0,29.95,South,184,5.0,9.0,63,0.00,,,0.00,Wunderground v.1.15,2013-05-18 20:34:00,
2013-05-18 15:39:00,88.3,74.1,29.95,SSE,147,4.0,9.0,63,0.00,,,0.00,Wunderground v.1.15,2013-05-18 20:39:00,
2013-05-18 15:45:00,89.0,74.8,29.94,WSW,240,3.0,12.0,63,0.00,,,0.00,Wunderground v.1.15,2013-05-18 20:45:00,
2013-05-18 15:50:00,89.1,73.9,29.94,SW,215,4.0,9.0,61,0.00,,,0.00,Wunderground v.1.15,2013-05-18 20:50:00,
2013-05-18 15:55:00,89.0,73.8,29.94,SSW,200,4.0,4.0,61,0.00,,,0.00,Wunderground v.1.15,2013-05-18 20:55:00,
2013-05-18 16:01:00,89.1,74.4,29.94,SW,219,3.0,11.0,62,0.00,,,0.00,Wunderground v.1.15,2013-05-18 21:01:00,
2013-05-18 16:06:00,89.2,74.0,29.94,SW,233,3.0,9.0,61,0.00,,,0.00,Wunderground v.1.15,2013-05-18 21:06:00,
2013-05-18 16:11:00,88.8,74.1,29.94,SW,221,4.0,9.0,62,0.00,,,0.00,Wunderground v.1.15,2013-05-18 21:11:00,
2013-05-18 16:16:00,88.9,74.2,29.94,SE,145,3.0,5.0,62,0.00,,,0.00,Wunderground v.1.15,2013-05-18 21:16:00,
2013-05-18 16:22:00,88.4,73.7,29.94,SE,129,4.0,10.0,62,0.00,,,0.00,Wunderground v.1.15,2013-05-18 21:22:00,
2013-05-18 16:27:00,88.1,73.4,29.94,West,263,4.0,9.0,62,0.00,,,0.00,Wunderground v.1.15,2013-05-18 21:27:00,
2013-05-18 16:33:00,88.0,73.3,29.94,SSE,160,3.0,9.0,62,0.00,,,0.00,Wunderground v.1.15,2013-05-18 21:33:00,
2013-05-18 16:39:00,87.9,73.7,29.94,SSW,203,4.0,9.0,63,0.00,,,0.00,Wunderground v.1.15,2013-05-18 21:39:00,
2013-05-18 16:44:00,88.0,73.8,29.94,SE,143,4.0,9.0,63,0.00,,,0.00,Wunderground v.1.15,2013-05-18 21:44:00,
2013-05-18 16:49:00,87.6,73.4,29.94,WSW,257,4.0,9.0,63,0.00,,,0.00,Wunderground v.1.15,2013-05-18 21:49:00,
2013-05-18 16:55:00,87.5,73.3,29.94,SSE,164,4.0,9.0,63,0.00,,,0.00,Wunderground v.1.15,2013-05-18 21:55:00,
2013-05-18 17:00:00,87.1,73.4,29.94,SSW,194,4.0,9.0,64,0.00,,,0.00,Wunderground v.1.15,2013-05-18 22:00:00,
2013-05-18 17:05:00,87.3,73.6,29.94,South,184,3.0,9.0,64,0.00,,,0.00,Wunderground v.1.15,2013-05-18 22:05:00,
2013-05-18 17:10:00,87.5,73.3,29.94,South,191,3.0,9.0,63,0.00,,,0.00,Wunderground v.1.15,2013-05-18 22:10:00,
2013-05-18 17:16:00,87.4,73.3,29.94,SW,233,3.0,9.0,63,0.00,,,0.00,Wunderground v.1.15,2013-05-18 22:16:00,
2013-05-18 17:21:00,87.4,73.3,29.94,ESE,120,4.0,9.0,63,0.00,,,0.00,Wunderground v.1.15,2013-05-18 22:21:00,
2013-05-18 17:27:00,87.2,73.1,29.94,SSW,207,3.0,5.0,63,0.00,,,0.00,Wunderground v.1.15,2013-05-18 22:27:00,
2013-05-18 17:32:00,86.9,72.8,29.94,SW,229,4.0,9.0,63,0.00,,,0.00,Wunderground v.1.15,2013-05-18 22:32:00,
2013-05-18 17:38:00,86.6,73.4,29.94,South,188,4.0,9.0,65,0.00,,,0.00,Wunderground v.1.15,2013-05-18 22:38:00,
2013-05-18 17:43:00,86.8,73.2,29.94,SE,139,4.0,9.0,64,0.00,,,0.00,Wunderground v.1.15,2013-05-18 22:43:00,
2013-05-18 17:49:00,86.7,73.1,29.94,SSE,155,4.0,9.0,64,0.00,,,0.00,Wunderground v.1.15,2013-05-18 22:49:00,
2013-05-18 17:55:00,86.6,72.5,29.94,SE,132,4.0,9.0,63,0.00,,,0.00,Wunderground v.1.15,2013-05-18 22:55:00,
2013-05-18 18:00:00,86.5,71.9,29.94,ESE,123,3.0,9.0,62,0.00,,,0.00,Wunderground v.1.15,2013-05-18 23:00:00,
2013-05-18 18:05:00,86.3,71.7,29.94,SW,226,3.0,9.0,62,0.00,,,0.00,Wunderground v.1.15,2013-05-18 23:05:00,
2013-05-18 18:10:00,86.3,72.2,29.94,WSW,240,2.0,9.0,63,0.00,,,0.00,Wunderground v.1.15,2013-05-18 23:10:00,
2013-05-18 18:16:00,86.3,71.7,29.94,South,188,2.0,9.0,62,0.00,,,0.00,Wunderground v.1.15,2013-05-18 23:16:00,
2013-05-18 18:21:00,86.1,72.0,29.94,SSE,150,3.0,9.0,63,0.00,,,0.00,Wunderground v.1.15,2013-05-18 23:21:00,
2013-05-18 18:26:00,86.0,71.9,29.94,SW,236,3.0,9.0,63,0.00,,,0.00,Wunderground v.1.15,2013-05-18 23:26:00,
2013-05-18 18:32:00,85.9,71.8,29.93,SW,233,3.0,9.0,63,0.00,,,0.00,Wunderground v.1.15,2013-05-18 23:32:00,
2013-05-18 18:37:00,85.7,71.7,29.93,SSW,200,3.0,9.0,63,0.00,,,0.00,Wunderground v.1.15,2013-05-18 23:37:00,
2013-05-18 18:42:00,85.4,70.4,29.93,South,169,3.0,9.0,61,0.00,,,0.00,Wunderground v.1.15,2013-05-18 23:42:00,
2013-05-18 18:47:00,85.2,70.7,29.93,West,269,3.0,9.0,62,0.00,,,0.00,Wunderground v.1.15,2013-05-18 23:47:00,
2013-05-18 18:52:00,85.1,70.6,29.93,SSE,166,3.0,9.0,62,0.00,,,0.00,Wunderground v.1.15,2013-05-18 23:52:00,
2013-05-18 18:58:00,85.0,71.0,29.93,South,180,3.0,9.0,63,0.00,,,0.00,Wunderground v.1.15,2013-05-18 23:58:00,
2013-05-18 19:03:00,85.2,71.6,29.93,WSW,238,2.0,9.0,64,0.00,,,0.00,Wunderground v.1.15,2013-05-19 00:03:00,
2013-05-18 19:09:00,85.1,71.5,29.93,SW,225,2.0,9.0,64,0.00,,,0.00,Wunderground v.1.15,2013-05-19 00:09:00,
2013-05-18 19:14:00,85.1,72.0,29.93,SE,146,2.0,9.0,65,0.00,,,0.00,Wunderground v.1.15,2013-05-19 00:14:00,
2013-05-18 19:19:00,84.8,72.2,29.93,SSE,153,2.0,9.0,66,0.00,,,0.00,Wunderground v.1.15,2013-05-19 00:19:00,
2013-05-18 19:24:00,84.3,72.6,29.93,SSE,149,2.0,9.0,68,0.00,,,0.00,Wunderground v.1.15,2013-05-19 00:24:00,
2013-05-18 19:30:00,83.6,72.3,29.94,WSW,249,2.0,9.0,69,0.00,,,0.00,Wunderground v.1.15,2013-05-19 00:30:00,
2013-05-18 19:35:00,83.2,72.4,29.94,SSE,152,1.0,9.0,70,0.00,,,0.00,Wunderground v.1.15,2013-05-19 00:35:00,
2013-05-18 19:40:00,82.7,72.3,29.94,SE,144,1.0,9.0,71,0.00,,,0.00,Wunderground v.1.15,2013-05-19 00:40:00,
2013-05-18 19:45:00,82.3,72.4,29.94,SSE,156,1.0,1.0,72,0.00,,,0.00,Wunderground v.1.15,2013-05-19 00:45:00,
2013-05-18 19:51:00,82.0,72.5,29.94,SW,235,1.0,9.0,73,0.00,,,0.00,Wunderground v.1.15,2013-05-19 00:51:00,
2013-05-18 19:56:00,81.6,72.5,29.94,SSW,201,1.0,9.0,74,0.00,,,0.00,Wunderground v.1.15,2013-05-19 00:56:00,
2013-05-18 20:01:00,81.3,73.0,29.94,SSE,160,1.0,9.0,76,0.00,,,0.00,Wunderground v.1.15,2013-05-19 01:01:00,
2013-05-18 20:06:00,81.0,72.7,29.94,SSE,151,1.0,9.0,76,0.00,,,0.00,Wunderground v.1.15,2013-05-19 01:06:00,
2013-05-18 20:12:00,80.7,72.8,29.94,SSW,194,1.0,9.0,77,0.00,,,0.00,Wunderground v.1.15,2013-05-19 01:12:00,
2013-05-18 20:17:00,80.4,72.5,29.94,SSW,207,1.0,9.0,77,0.00,,,0.00,Wunderground v.1.15,2013-05-19 01:17:00,
2013-05-18 20:23:00,80.2,72.7,29.94,South,184,1.0,9.0,78,0.00,,,0.00,Wunderground v.1.15,2013-05-19 01:23:00,
2013-05-18 20:29:00,80.0,72.5,29.94,SSE,147,1.0,9.0,78,0.00,,,0.00,Wunderground v.1.15,2013-05-19 01:29:00,
2013-05-18 20:34:00,79.7,72.2,29.94,WSW,240,1.0,9.0,78,0.00,,,0.00,Wunderground v.1.15,2013-05-19 01:34:00,
2013-05-18 20:39:00,79.5,72.4,29.94,SSE,166,1.0,9.0,79,0.00,,,0.00,Wunderground v.1.15,2013-05-19 01:39:00,
2013-05-18 20:44:00,79.3,72.2,29.94,SSE,163,1.0,9.0,79,0.00,,,0.00,Wunderground v.1.15,2013-05-19 01:44:00,
2013-05-18 20:50:00,79.0,71.9,29.94,SW,214,1.0,9.0,79,0.00,,,0.00,Wunderground v.1.15,2013-05-19 01:50:00,
2013-05-18 20:55:00,78.8,72.1,29.94,WSW,242,1.0,9.0,80,0.00,,,0.00,Wunderground v.1.15,2013-05-19 01:55:00,
2013-05-18 21:00:00,78.5,71.8,29.94,SE,136,1.0,9.0,80,0.00,,,0.00,Wunderground v.1.15,2013-05-19 02:00:00,
2013-05-18 21:05:00,78.1,71.8,29.94,SW,219,1.0,1.0,81,0.00,,,0.00,Wunderground v.1.15,2013-05-19 02:05:00,
2013-05-18 21:11:00,77.9,71.6,29.94,SSE,150,1.0,9.0,81,0.00,,,0.00,Wunderground v.1.15,2013-05-19 02:11:00,
2013-05-18 21:16:00,77.7,71.8,29.94,SSE,148,1.0,9.0,82,0.00,,,0.00,Wunderground v.1.15,2013-05-19 02:16:00,
2013-05-18 21:21:00,77.5,71.9,29.94,South,169,1.0,9.0,83,0.00,,,0.00,Wunderground v.1.15,2013-05-19 02:21:00,
2013-05-18 21:27:00,77.4,71.8,29.94,SSW,207,1.0,9.0,83,0.00,,,0.00,Wunderground v.1.15,2013-05-19 02:27:00,
2013-05-18 21:32:00,77.2,71.6,29.94,SSW,204,1.0,9.0,83,0.00,,,0.00,Wunderground v.1.15,2013-05-19 02:32:00,
2013-05-18 21:37:00,77.1,71.5,29.94,SSE,166,1.0,9.0,83,0.00,,,0.00,Wunderground v.1.15,2013-05-19 02:37:00,
2013-05-18 21:43:00,76.9,71.7,29.94,WSW,242,1.0,9.0,84,0.00,,,0.00,Wunderground v.1.15,2013-05-19 02:43:00,
2013-05-18 21:48:00,76.7,71.5,29.94,WSW,256,1.0,9.0,84,0.00,,,0.00,Wunderground v.1.15,2013-05-19 02:48:00,
2013-05-18 21:54:00,76.5,71.3,29.94,SSW,205,0.0,9.0,84,0.00,,,0.00,Wunderground v.1.15,2013-05-19 02:54:00,
2013-05-18 21:59:00,76.2,71.4,29.95,SW,227,1.0,9.0,85,0.00,,,0.00,Wunderground v.1.15,2013-05-19 02:59:00,
2013-05-18 22:04:00,76.1,71.3,29.95,SW,219,1.0,9.0,85,0.00,,,0.00,Wunderground v.1.15,2013-05-19 03:04:00,
2013-05-18 22:09:00,76.1,71.3,29.95,WSW,240,1.0,9.0,85,0.00,,,0.00,Wunderground v.1.15,2013-05-19 03:09:00,
2013-05-18 22:14:00,76.0,71.2,29.95,WSW,240,1.0,9.0,85,0.00,,,0.00,Wunderground v.1.15,2013-05-19 03:14:00,
2013-05-18 22:20:00,75.9,71.1,29.95,SW,233,1.0,9.0,85,0.00,,,0.00,Wunderground v.1.15,2013-05-19 03:20:00,
2013-05-18 22:25:00,75.8,71.0,29.95,SW,235,1.0,9.0,85,0.00,,,0.00,Wunderground v.1.15,2013-05-19 03:25:00,
2013-05-18 22:30:00,75.7,70.9,29.95,SW,217,1.0,9.0,85,0.00,,,0.00,Wunderground v.1.15,2013-05-19 03:30:00,
2013-05-18 22:36:00,75.5,71.0,29.94,South,188,1.0,1.0,86,0.00,,,0.00,Wunderground v.1.15,2013-05-19 03:36:00,
2013-05-18 22:41:00,75.3,70.8,29.95,WSW,255,1.0,9.0,86,0.00,,,0.00,Wunderground v.1.15,2013-05-19 03:41:00,
2013-05-18 22:46:00,75.3,71.2,29.95,SW,222,1.0,9.0,87,0.00,,,0.00,Wunderground v.1.15,2013-05-19 03:46:00,
2013-05-18 22:52:00,75.3,71.2,29.95,SW,217,2.0,9.0,87,0.00,,,0.00,Wunderground v.1.15,2013-05-19 03:52:00,
2013-05-18 22:57:00,75.3,71.2,29.95,SSE,159,2.0,9.0,87,0.00,,,0.00,Wunderground v.1.15,2013-05-19 03:57:00,
2013-05-18 23:01:00,75.3,71.2,29.95,SSW,208,2.0,9.0,87,0.00,,,0.00,Wunderground v.1.15,2013-05-19 04:01:00,
2013-05-18 23:04:00,75.2,71.1,29.95,SW,235,2.0,9.0,87,0.00,,,0.00,Wunderground v.1.15,2013-05-19 04:04:00,
2013-05-18 23:06:00,75.1,71.0,29.95,South,170,1.0,9.0,87,0.00,,,0.00,Wunderground v.1.15,2013-05-19 04:06:00,
2013-05-18 23:09:00,75.0,70.9,29.95,SSE,153,1.0,9.0,87,0.00,,,0.00,Wunderground v.1.15,2013-05-19 04:09:00,
2013-05-18 23:10:00,75.0,70.9,29.94,SSW,193,1.0,9.0,87,0.00,,,0.00,Wunderground v.1.15,2013-05-19 04:10:00,
2013-05-18 23:16:00,74.8,71.0,29.94,SSE,165,1.0,9.0,88,0.00,,,0.00,Wunderground v.1.15,2013-05-19 04:16:00,
2013-05-18 23:21:00,74.6,70.8,29.94,SW,215,1.0,9.0,88,0.00,,,0.00,Wunderground v.1.15,2013-05-19 04:21:00,
2013-05-18 23:27:00,74.4,70.9,29.94,South,173,1.0,9.0,89,0.00,,,0.00,Wunderground v.1.15,2013-05-19 04:27:00,
2013-05-18 23:32:00,74.2,70.7,29.93,SSE,158,1.0,9.0,89,0.00,,,0.00,Wunderground v.1.15,2013-05-19 04:32:00,
2013-05-18 23:37:00,74.1,71.0,29.93,SSE,153,1.0,9.0,90,0.00,,,0.00,Wunderground v.1.15,2013-05-19 04:37:00,
2013-05-18 23:42:00,73.9,70.8,29.93,SSE,160,1.0,9.0,90,0.00,,,0.00,Wunderground v.1.15,2013-05-19 04:42:00,
2013-05-18 23:48:00,73.8,71.0,29.93,SE,136,1.0,9.0,91,0.00,,,0.00,Wunderground v.1.15,2013-05-19 04:48:00,
2013-05-18 23:53:00,73.7,70.9,29.93,SE,139,1.0,9.0,91,0.00,,,0.00,Wunderground v.1.15,2013-05-19 04:53:00,
2013-05-18 23:58:00,73.6,70.8,29.93,SE,143,1.0,9.0,91,0.00,,,0.00,Wunderground v.1.15,2013-05-19 04:58:00,